Flag for French Polynesia Weather past 2 weeks in Taiohae, Marquesas Islands, French Polynesia

Now
75 °F

Mild.


Feels Like: 74 °F
Forecast: 80 / 83 °F
Wind: 2 mph from Northeast

Location: Atuona

Current Time: Dec 20, 2014 at 12:44:21 AM

Latest Report: Dec 19, 2014 at 11:30 PM


Visibility: N/A

Pressure: 29.84 "Hg

Humidity: 92%

Dew point: 73 °F

Location of TaiohaeLocation

Historic Weather in Taiohae — Graph

°F

Taiohae temperature yesterday

Maximum temperature yesterday: 89 °F (at 1:30 PM)
Minimum temperature yesterday: 75 °F (at 11:30 PM)
Average temperature yesterday: 81 °F

Past Weeks' High & Low Weather Summary

 TemperatureHumidityPressure
High92 °F (Dec 6, 9:30 AM)96% (Dec 13, 2:30 AM)29.93 "Hg (Dec 13, 2:30 AM)
Low73 °F (Dec 13, 12:30 AM)50% (Dec 19, 1:30 PM)29.75 "Hg (Dec 19, 2:30 PM)
Average80 °F76%29.86 "Hg
* Reported Dec 4 11:30 PM — Dec 19 11:30 PM, Taiohae, Weather by CustomWeather, © 2014

Note: Actual official high and low records may vary slightly from our data, if they occured in-between our weather recording intervals... More about our weather records

Advertising

Taiohae weather history for previous 24 hours

 ConditionsComfort  
Time TempWeatherWind HumidityBarometerVisibility
11:30 PM
Dec 19
75 °FMild.2 mph92%29.84 "HgN/A
10:30 PM76 °FMild.2 mph85%29.85 "HgN/A
9:30 PM76 °FMild.No wind81%29.85 "HgN/A
8:30 PM77 °FMild.No wind79%29.84 "HgN/A
7:30 PM78 °FWarm.2 mph78%29.82 "HgN/A
6:30 PM80 °FWarm.3 mph70%29.80 "HgN/A
5:30 PM82 °FWarm.5 mph67%29.77 "HgN/A
4:30 PM83 °FOvercast.7 mph64%29.75 "Hg31 mi
3:30 PM85 °FScattered clouds.8 mph56%29.75 "Hg31 mi
2:30 PM88 °FWarm.7 mph51%29.75 "HgN/A
1:30 PM89 °FHot.8 mph50%29.76 "HgN/A
12:30 PM88 °FHot.9 mph52%29.79 "HgN/A
10:30 AM88 °FScattered clouds.7 mph55%29.84 "Hg31 mi
9:30 AM88 °FPartly sunny.6 mph57%29.86 "Hg25 mi
8:30 AM87 °FWarm.6 mph59%29.86 "HgN/A
7:30 AM84 °FScattered clouds.6 mph72%29.87 "Hg25 mi
6:30 AM80 °FWarm.3 mph73%29.86 "HgN/A
5:30 AM77 °FMild.3 mph83%29.84 "HgN/A
4:30 AM78 °FWarm.6 mph78%29.83 "HgN/A
3:30 AM77 °FMild.3 mph83%29.82 "HgN/A
2:30 AM76 °FMild.5 mph86%29.82 "HgN/A
1:30 AM76 °FMild.2 mph85%29.83 "HgN/A
12:30 AM77 °FWarm.3 mph82%29.85 "HgN/A
Weather by CustomWeather, © 2014

See weather overviewHow to use our weather pages